Retour au catalogue

STARLINK-37165

ActifCommunicationsVLEO
NORAD 68287·PAYLOAD·🇺🇸 United States

Lancé Mar 19, 2026 depuis Vandenberg Space Force Base

Loading…

Prochains Passages (prochaines 24 heures)

TLE

FraisSource: CelesTrak SupGP

Époque: Sep 15, 2026, 03:38 UTC

1 68287C 26055AB  26258.15187500  .00035333  00000+0  10436-2 0  2589
2 68287  53.1568 154.5563 0001292  89.6854 285.7758 15.34383960    19

Suivez STARLINK-37165 en temps réel avec AllMySat

Download on the App Store